EW4427 Weather Reports


time (UTC)temp
C
wind
direction
speed
KPH
gust
KPH
rain 1hr
cm
rain 24hr
cm
rain mn
cm
humidity
%
barometer
mb
20260903134047 23 22 3.2 9.7 0.00 0.03 0.00 95 1014.6
20260903133547 23 0 1.6 11.3 0.00 0.03 0.00 95 1014.6
20260903133108 23 26 4.8 11.3 0.00 0.03 0.00 96 1014.5
20260903132548 23 0 0.0 1.6 0.00 0.03 0.00 96 1013.9
20260903132045 23 0 0.0 0.0 0.00 0.03 0.00 96 1013.4
20260903131601 23 0 0.0 0.0 0.00 0.03 0.00 96 1013.2
20260903131045 23 0 0.0 0.0 0.00 0.03 0.00 96 1013.1
20260903130545 23 0 0.0 1.6 0.00 0.03 0.00 96 1013.1
20260903125546 23 0 0.0 6.4 0.00 0.03 0.00 96 1012.8
20260903125046 23 188 3.2 6.4 0.00 0.03 0.00 96 1012.8
20260903124557 23 188 0.0 3.2 0.00 0.03 0.00 95 1012.8
20260903124045 23 0 0.0 1.6 0.00 0.03 0.00 95 1012.8
20260903123549 23 0 0.0 1.6 0.00 0.03 0.00 95 1012.9
20260903123101 23 0 0.0 1.6 0.00 0.03 0.00 95 1012.9
20260903122546 22 0 0.0 1.6 0.00 0.03 0.00 95 1012.8
20260903122046 22 0 0.0 1.6 0.00 0.03 0.00 95 1013.0
20260903121558 22 0 0.0 0.0 0.00 0.03 0.00 95 1012.9
20260903121046 22 0 0.0 0.0 0.00 0.03 0.00 94 1012.9
20260903120545 22 0 0.0 0.0 0.00 0.03 0.00 94 1013.0
20260903120106 22 0 0.0 0.0 0.00 0.03 0.00 94 1012.9
20260903115546 22 0 0.0 0.0 0.00 0.03 0.00 94 1013.0
20260903115049 22 0 0.0 0.0 0.00 0.03 0.00 94 1013.0
20260903114558 22 0 0.0 0.0 0.00 0.03 0.00 94 1013.0
20260903114045 22 0 0.0 0.0 0.00 0.03 0.00 94 1013.0
20260903113550 22 0 0.0 0.0 0.00 0.03 0.00 94 1013.1
20260903113056 22 0 0.0 0.0 0.00 0.03 0.00 94 1013.1
20260903112548 22 0 0.0 0.0 0.00 0.03 0.00 94 1013.1
20260903112045 22 0 0.0 0.0 0.00 0.03 0.00 94 1013.0
20260903111558 22 0 0.0 0.0 0.00 0.03 0.00 94 1013.0
20260903111046 22 0 0.0 0.0 0.00 0.03 0.00 94 1012.9
20260903110546 22 0 0.0 0.0 0.00 0.03 0.00 94 1013.0
20260903105547 22 0 0.0 0.0 0.00 0.03 0.00 94 1013.0
20260903105048 22 0 0.0 0.0 0.00 0.03 0.00 94 1012.9
20260903104559 22 0 0.0 0.0 0.00 0.03 0.00 94 1013.0
20260903104045 22 0 0.0 0.0 0.00 0.03 0.00 94 1012.9
20260903103546 22 0 0.0 0.0 0.00 0.03 0.00 94 1012.9
20260903103105 22 0 0.0 0.0 0.00 0.03 0.00 94 1013.0
20260903102546 22 0 0.0 0.0 0.00 0.03 0.00 94 1012.9
20260903102050 23 0 0.0 0.0 0.00 0.03 0.00 94 1013.0
20260903101603 23 0 0.0 0.0 0.00 0.03 0.00 94 1013.0
20260903101045 23 0 0.0 0.0 0.00 0.03 0.00 94 1013.0
20260903100545 23 0 0.0 0.0 0.00 0.03 0.00 94 1013.0
20260903095545 23 0 0.0 0.0 0.00 0.03 0.00 94 1013.0
20260903095046 23 0 0.0 0.0 0.00 0.03 0.00 94 1013.1
20260903094608 23 0 0.0 0.0 0.00 0.03 0.00 94 1013.2
20260903094045 23 0 0.0 0.0 0.00 0.03 0.00 94 1013.2
20260903093545 23 0 0.0 0.0 0.00 0.03 0.00 94 1013.1
20260903093129 23 0 0.0 0.0 0.00 0.03 0.00 94 1013.1
20260903092546 23 0 0.0 0.0 0.00 0.03 0.00 94 1013.1
20260903092046 23 0 0.0 0.0 0.00 0.03 0.00 94 1013.0
20260903091601 23 0 0.0 0.0 0.00 0.03 0.00 94 1013.0
20260903091046 23 0 0.0 0.0 0.00 0.03 0.00 95 1013.0
20260903090545 23 0 0.0 0.0 0.00 0.03 0.00 94 1013.0
20260903090058 23 0 0.0 0.0 0.00 0.03 0.00 94 1013.0
20260903085545 23 0 0.0 0.0 0.00 0.03 0.00 94 1013.0
20260903085046 23 0 0.0 0.0 0.00 0.03 0.00 94 1013.0
20260903084603 23 0 0.0 0.0 0.00 0.03 0.00 94 1013.0
20260903084047 23 0 0.0 0.0 0.00 0.03 0.00 94 1013.0
20260903083546 23 0 0.0 0.0 0.00 0.03 0.00 94 1013.0
20260903083102 23 0 0.0 0.0 0.00 0.03 0.00 94 1013.0
20260903082545 23 0 0.0 0.0 0.00 0.03 0.00 93 1013.1
20260903082045 23 0 0.0 0.0 0.00 0.03 0.00 93 1013.3
20260903081558 23 0 0.0 0.0 0.00 0.03 0.00 93 1013.1
20260903081046 23 0 0.0 0.0 0.00 0.03 0.00 93 1013.1
20260903080546 23 0 0.0 0.0 0.00 0.03 0.00 93 1013.1
20260903080110 23 0 0.0 0.0 0.00 0.03 0.00 93 1013.2
20260903075546 23 0 0.0 0.0 0.00 0.03 0.00 93 1013.1
20260903075045 23 0 0.0 0.0 0.00 0.03 0.00 93 1013.1
20260903074625 23 0 0.0 0.0 0.00 0.03 0.00 93 1013.1
20260903074046 23 0 0.0 0.0 0.00 0.03 0.00 93 1013.2
20260903073559 23 0 0.0 0.0 0.00 0.03 0.00 93 1013.0
20260903073110 23 0 0.0 0.0 0.00 0.03 0.00 93 1013.1
20260903072545 23 0 0.0 0.0 0.00 0.03 0.00 93 1013.1
20260903072045 23 0 0.0 0.0 0.00 0.03 0.00 93 1013.1
20260903071607 23 0 0.0 0.0 0.00 0.03 0.00 93 1013.0
20260903071046 23 0 0.0 0.0 0.00 0.03 0.00 93 1013.1
20260903070547 23 0 0.0 0.0 0.00 0.03 0.00 93 1013.1
20260903070057 23 0 0.0 0.0 0.00 0.03 0.00 93 1013.0
20260903065547 23 0 0.0 0.0 0.00 0.03 0.00 93 1013.0
20260903065046 23 0 0.0 0.0 0.00 0.03 0.00 93 1013.1
20260903064558 23 0 0.0 0.0 0.00 0.03 0.00 92 1013.3
20260903064045 23 0 0.0 0.0 0.00 0.03 0.00 92 1013.2
20260903063545 23 0 0.0 0.0 0.00 0.03 0.00 92 1013.4
20260903063057 23 0 0.0 0.0 0.00 0.03 0.00 92 1013.3
20260903062546 23 0 0.0 0.0 0.00 0.03 0.00 92 1013.4
20260903062045 23 0 0.0 0.0 0.00 0.03 0.00 92 1013.3
20260903061559 23 0 0.0 0.0 0.00 0.03 0.00 92 1013.4
20260903061045 23 0 0.0 0.0 0.00 0.03 0.00 91 1013.4
20260903060547 23 0 0.0 0.0 0.00 0.03 0.00 91 1013.3
20260903055546 23 0 0.0 0.0 0.00 0.03 0.00 91 1013.2
20260903055045 23 0 0.0 0.0 0.00 0.03 0.00 91 1013.3
20260903054601 23 0 0.0 0.0 0.00 0.03 0.00 91 1013.3
20260903054045 23 0 0.0 0.0 0.00 0.03 0.00 91 1013.3
20260903053544 23 0 0.0 0.0 0.00 0.03 0.00 91 1013.4
20260903053058 24 0 0.0 0.0 0.00 0.03 0.00 91 1013.3
20260903052547 24 0 0.0 0.0 0.00 0.03 0.00 91 1013.3
20260903052045 24 0 0.0 0.0 0.00 0.03 0.00 91 1013.3
20260903051601 24 0 0.0 0.0 0.00 0.03 0.00 91 1013.4
20260903051045 24 0 0.0 0.0 0.00 0.03 0.00 91 1013.4
20260903050545 24 0 0.0 0.0 0.00 0.03 0.00 91 1013.3
20260903050100 24 0 0.0 0.0 0.00 0.03 0.00 91 1013.3
20260903045545 24 0 0.0 0.0 0.00 0.03 0.03 90 1013.3
20260903045045 24 0 0.0 0.0 0.00 0.03 0.03 90 1013.3
20260903044557 25 0 0.0 0.0 0.00 0.03 0.03 90 1013.3
20260903044047 25 0 0.0 0.0 0.00 0.03 0.03 90 1013.2
20260903043545 25 0 0.0 0.0 0.00 0.03 0.03 90 1013.1
20260903043102 25 0 0.0 0.0 0.00 0.03 0.03 90 1013.1
20260903042547 25 0 0.0 0.0 0.00 0.03 0.03 90 1012.9
20260903042045 25 0 0.0 0.0 0.00 0.03 0.03 89 1012.8
20260903041556 25 0 0.0 0.0 0.00 0.03 0.03 89 1012.8
20260903041051 25 0 0.0 0.0 0.00 0.03 0.03 89 1012.7
20260903040545 25 0 0.0 0.0 0.00 0.03 0.03 89 1012.7
20260903040057 25 0 0.0 0.0 0.03 0.03 0.03 89 1012.8
20260903035545 25 0 0.0 0.0 0.03 0.03 0.03 89 1012.8
20260903035045 25 0 0.0 0.0 0.03 0.03 0.03 89 1012.8
20260903034606 25 0 0.0 0.0 0.03 0.03 0.03 89 1012.8
20260903034046 25 0 0.0 0.0 0.03 0.03 0.03 89 1012.8
20260903033545 25 0 0.0 0.0 0.03 0.03 0.03 89 1012.9
20260903033116 25 0 0.0 0.0 0.03 0.03 0.03 88 1012.9
20260903032546 25 0 0.0 0.0 0.03 0.03 0.03 88 1012.9
20260903032046 25 0 0.0 0.0 0.03 0.03 0.03 88 1013.0
20260903031635 25 0 0.0 0.0 0.03 0.03 0.03 88 1012.8
20260903031045 25 0 0.0 0.0 0.03 0.03 0.03 88 1012.9
20260903030546 25 0 0.0 0.0 0.03 0.03 0.03 88 1013.0
20260903025545 26 0 0.0 0.0 0.00 0.00 0.00 87 1013.0
20260903025046 26 0 0.0 0.0 0.00 0.00 0.00 87 1013.0
20260903024558 26 0 0.0 0.0 0.00 0.00 0.00 87 1013.0
20260903024045 26 0 0.0 0.0 0.00 0.00 0.00 87 1013.0
20260903023548 26 0 0.0 0.0 0.00 0.00 0.00 87 1013.0
20260903023107 26 0 0.0 0.0 0.00 0.00 0.00 87 1013.0
20260903022548 26 0 0.0 0.0 0.00 0.00 0.00 87 1013.0
20260903022045 26 0 0.0 0.0 0.00 0.00 0.00 87 1013.0
20260903021558 26 0 0.0 0.0 0.00 0.00 0.00 86 1012.9
20260903021045 26 0 0.0 0.0 0.00 0.00 0.00 86 1012.8
20260903020544 26 0 0.0 0.0 0.00 0.00 0.00 86 1013.0
20260903020055 26 0 0.0 0.0 0.00 0.00 0.00 86 1012.9
20260903015545 27 0 0.0 0.0 0.00 0.00 0.00 86 1012.8
20260903015047 27 0 0.0 0.0 0.00 0.00 0.00 85 1012.7
20260903014602 27 0 0.0 0.0 0.00 0.00 0.00 86 1012.7
20260903014046 27 0 0.0 0.0 0.00 0.00 0.00 86 1012.7
20260903013545 27 0 0.0 0.0 0.00 0.00 0.00 86 1012.7
20260903013056 27 0 0.0 0.0 0.00 0.00 0.00 85 1012.6
20260903012547 27 0 0.0 0.0 0.00 0.00 0.00 84 1012.5
20260903012045 27 0 0.0 0.0 0.00 0.00 0.00 82 1012.3
20260903011602 27 0 0.0 0.0 0.00 0.00 0.00 82 1012.3
20260903011048 28 0 0.0 0.0 0.00 0.00 0.00 82 1012.2
20260903010544 28 0 0.0 0.0 0.00 0.00 0.00 81 1012.2
20260903010105 28 0 0.0 0.0 0.00 0.00 0.00 81 1012.3
20260903005542 28 0 0.0 0.0 0.00 0.00 0.00 81 1012.1
20260903005042 28 0 0.0 0.0 0.00 0.00 0.00 80 1012.0
20260903004602 28 0 0.0 0.0 0.00 0.00 0.00 80 1012.0
20260903004045 28 0 0.0 0.0 0.00 0.00 0.00 80 1012.0
20260903003545 28 0 0.0 0.0 0.00 0.00 0.00 80 1012.0
20260903003103 29 0 0.0 0.0 0.00 0.00 0.00 79 1012.0
20260903002544 29 0 0.0 0.0 0.00 0.00 0.00 79 1012.0
20260903002044 29 0 0.0 0.0 0.00 0.00 0.00 79 1012.1
20260903001605 29 0 0.0 0.0 0.00 0.00 0.00 79 1012.0
20260903001043 29 0 0.0 0.0 0.00 0.00 0.00 79 1012.1
20260903000545 29 0 0.0 0.0 0.00 0.00 0.00 79 1012.1
20260903000100 30 0 0.0 0.0 0.00 0.00 0.00 79 1012.2
20260902235545 30 0 0.0 0.0 0.00 0.00 0.00 79 1012.2
20260902235047 30 0 0.0 0.0 0.00 0.00 0.00 79 1012.3
20260902234606 30 0 0.0 0.0 0.00 0.00 0.00 79 1012.2
20260902234044 30 0 0.0 0.0 0.00 0.00 0.00 79 1012.3
20260902233547 30 0 0.0 0.0 0.00 0.00 0.00 79 1012.3
20260902233102 30 0 0.0 0.0 0.00 0.00 0.00 79 1012.3
20260902232544 30 0 0.0 0.0 0.00 0.00 0.00 78 1012.1
20260902232043 30 0 0.0 0.0 0.00 0.00 0.00 78 1012.2
20260902231610 30 0 0.0 0.0 0.00 0.00 0.00 78 1012.2
20260902231047 30 0 0.0 0.0 0.00 0.00 0.00 77 1012.1
20260902230543 30 0 0.0 0.0 0.00 0.00 0.00 77 1012.1
20260902230059 30 0 0.0 0.0 0.00 0.00 0.00 76 1012.2
20260902225547 30 0 0.0 0.0 0.00 0.00 0.00 76 1012.2
20260902225043 30 0 0.0 0.0 0.00 0.00 0.00 75 1012.2
20260902224605 30 0 0.0 0.0 0.00 0.00 0.00 75 1012.3
20260902224042 31 0 0.0 0.0 0.00 0.00 0.00 74 1012.3
20260902223542 31 0 0.0 0.0 0.00 0.00 0.00 74 1012.2
20260902223101 31 0 0.0 0.0 0.00 0.00 0.00 73 1012.2
20260902222545 31 0 0.0 0.0 0.00 0.00 0.00 72 1012.3
20260902222043 31 0 0.0 0.0 0.00 0.00 0.00 72 1012.5
20260902221600 31 0 0.0 0.0 0.00 0.00 0.00 72 1012.6
20260902221043 31 0 0.0 0.0 0.00 0.00 0.00 72 1012.4
20260902220544 31 0 0.0 0.0 0.00 0.00 0.00 72 1012.3
20260902220100 31 0 0.0 0.0 0.00 0.00 0.00 71 1012.3
20260902215545 31 0 0.0 0.0 0.00 0.00 0.00 70 1012.3
20260902215042 31 0 0.0 0.0 0.00 0.00 0.00 71 1012.4
20260902214556 31 0 0.0 0.0 0.00 0.00 0.00 70 1012.3
20260902214041 31 0 0.0 0.0 0.00 0.00 0.00 70 1012.4
20260902213543 31 0 0.0 0.0 0.00 0.00 0.00 69 1012.4
20260902213105 31 0 0.0 0.0 0.00 0.00 0.00 69 1012.6
20260902212544 32 0 0.0 0.0 0.00 0.00 0.00 68 1012.5
20260902212048 32 0 0.0 0.0 0.00 0.00 0.00 67 1012.5
20260902211600 32 0 0.0 0.0 0.00 0.00 0.00 66 1012.6
20260902211042 32 0 0.0 0.0 0.00 0.00 0.00 66 1012.5
20260902210542 32 0 0.0 0.0 0.00 0.00 0.00 66 1012.6
20260902205541 32 0 0.0 0.0 0.00 0.00 0.00 65 1012.7
20260902205044 32 0 0.0 0.0 0.00 0.00 0.00 64 1012.7
20260902204602 33 0 0.0 0.0 0.00 0.00 0.00 64 1012.5
20260902204044 33 0 0.0 0.0 0.00 0.00 0.00 64 1012.5
20260902203544 32 0 0.0 0.0 0.00 0.00 0.00 65 1012.5
20260902203122 32 0 0.0 0.0 0.00 0.00 0.00 65 1012.5
20260902202543 32 0 0.0 0.0 0.00 0.00 0.00 65 1012.4
20260902202043 32 0 0.0 0.0 0.00 0.00 0.00 64 1012.5
20260902201554 32 0 0.0 0.0 0.00 0.00 0.00 64 1012.5
20260902201042 32 0 0.0 0.0 0.00 0.00 0.00 65 1012.5
20260902200543 32 0 0.0 0.0 0.00 0.00 0.00 67 1012.7
20260902200100 32 0 0.0 0.0 0.00 0.00 0.00 64 1012.7
20260902195545 32 0 0.0 0.0 0.00 0.00 0.00 65 1012.8
20260902195044 32 0 0.0 0.0 0.00 0.00 0.00 68 1012.7
20260902194559 32 0 0.0 0.0 0.00 0.00 0.00 67 1012.7
20260902194044 32 0 0.0 11.3 0.00 0.00 0.00 66 1012.7
20260902193545 32 0 0.0 11.3 0.00 0.00 0.00 66 1012.7
20260902193102 33 0 0.0 0.0 0.00 0.00 0.00 66 1012.8
20260902192541 33 0 0.0 0.0 0.00 0.00 0.00 65 1013.0
20260902192045 32 0 0.0 0.0 0.00 0.00 0.00 67 1012.9
20260902191559 32 0 0.0 0.0 0.00 0.00 0.00 65 1012.8
20260902191041 32 0 0.0 0.0 0.00 0.00 0.00 66 1013.0
20260902190541 32 0 0.0 0.0 0.00 0.00 0.00 67 1013.0
20260902190100 32 0 0.0 0.0 0.00 0.00 0.00 69 1013.2
20260902185619 32 0 0.0 0.0 0.00 0.00 0.00 68 1013.1
20260902185046 32 0 0.0 0.0 0.00 0.00 0.00 69 1013.1
20260902184603 31 0 0.0 0.0 0.00 0.00 0.00 71 1013.1
20260902184046 31 0 0.0 0.0 0.00 0.00 0.00 71 1013.1
20260902183547 31 0 0.0 0.0 0.00 0.00 0.00 71 1013.1
20260902183120 30 0 0.0 0.0 0.00 0.00 0.00 73 1013.2
20260902182547 30 0 0.0 0.0 0.00 0.00 0.00 74 1013.1
20260902182048 30 0 0.0 0.0 0.00 0.00 0.00 73 1013.1
20260902181558 30 0 0.0 0.0 0.00 0.00 0.00 75 1013.2
20260902181045 30 0 0.0 0.0 0.00 0.00 0.00 73 1013.0
20260902180546 30 0 0.0 0.0 0.00 0.00 0.00 74 1013.2
20260902180055 30 0 0.0 0.0 0.00 0.00 0.00 75 1013.3
20260902175546 29 0 0.0 0.0 0.00 0.03 0.00 75 1013.5
20260902175046 29 0 0.0 0.0 0.00 0.03 0.00 77 1013.6
20260902174608 29 0 0.0 0.0 0.00 0.03 0.00 75 1013.5
20260902174047 28 0 0.0 0.0 0.00 0.03 0.00 77 1013.7
20260902173546 28 0 0.0 0.0 0.00 0.03 0.00 76 1013.6
20260902173059 28 0 0.0 0.0 0.00 0.03 0.00 78 1013.6
20260902172546 28 0 0.0 0.0 0.00 0.03 0.00 78 1013.6
20260902172048 28 0 0.0 0.0 0.00 0.03 0.00 79 1013.6
20260902171605 28 0 0.0 0.0 0.00 0.03 0.00 79 1013.8
20260902171047 28 0 0.0 0.0 0.00 0.03 0.00 79 1013.9
20260902170546 28 0 0.0 0.0 0.00 0.03 0.00 79 1013.8
20260902165547 28 0 0.0 0.0 0.00 0.03 0.00 81 1013.7
20260902165047 27 0 0.0 0.0 0.00 0.03 0.00 82 1013.8
20260902164600 27 0 0.0 0.0 0.00 0.03 0.00 82 1013.9
20260902164046 27 0 0.0 0.0 0.00 0.03 0.00 82 1013.8
20260902163546 27 0 0.0 0.0 0.00 0.03 0.00 84 1013.8
20260902163116 27 0 0.0 0.0 0.00 0.03 0.00 84 1013.6
20260902162544 27 0 0.0 0.0 0.00 0.03 0.00 84 1013.6
20260902162044 27 0 0.0 0.0 0.00 0.03 0.00 84 1013.7
20260902161605 26 0 0.0 0.0 0.00 0.03 0.00 85 1013.5
20260902161043 26 0 0.0 0.0 0.00 0.03 0.00 85 1013.5
20260902160542 26 0 0.0 0.0 0.00 0.03 0.00 85 1013.5
20260902155543 26 0 0.0 0.0 0.00 0.03 0.00 85 1013.7
20260902155043 25 0 0.0 0.0 0.00 0.03 0.00 84 1013.8
20260902154603 25 0 0.0 0.0 0.00 0.03 0.00 84 1013.8
20260902154043 25 0 0.0 0.0 0.00 0.03 0.00 84 1013.8
20260902153544 25 0 0.0 0.0 0.00 0.03 0.00 83 1013.9
20260902153112 25 0 0.0 0.0 0.00 0.03 0.00 82 1013.9
20260902152543 25 0 0.0 0.0 0.00 0.03 0.00 82 1013.9
20260902152045 25 0 0.0 0.0 0.00 0.03 0.00 83 1014.0
20260902151603 25 0 0.0 0.0 0.00 0.03 0.00 84 1014.0
20260902151048 25 0 0.0 0.0 0.00 0.03 0.00 86 1014.1
20260902150545 25 0 0.0 0.0 0.00 0.03 0.00 87 1014.1
20260902150059 25 0 0.0 0.0 0.00 0.03 0.00 87 1014.0
20260902145546 24 0 0.0 0.0 0.00 0.03 0.00 88 1014.1
20260902145046 24 0 0.0 0.0 0.00 0.03 0.00 88 1014.2
20260902144555 24 0 0.0 0.0 0.00 0.03 0.00 89 1014.2
20260902144046 24 0 0.0 0.0 0.00 0.03 0.00 90 1014.2
20260902143550 24 0 0.0 0.0 0.00 0.03 0.00 91 1014.4
20260902143058 24 0 0.0 0.0 0.00 0.03 0.00 91 1014.2
20260902142549 23 0 0.0 0.0 0.00 0.03 0.00 91 1014.3
20260902142047 23 0 0.0 0.0 0.00 0.03 0.00 92 1014.5
20260902141603 23 0 0.0 0.0 0.00 0.03 0.00 92 1014.4
20260902141046 23 0 0.0 0.0 0.00 0.03 0.00 93 1014.4
20260902140547 23 0 0.0 0.0 0.00 0.03 0.00 93 1014.5
20260902135546 23 0 0.0 0.0 0.00 0.03 0.00 94 1014.6
20260902135044 23 0 0.0 0.0 0.00 0.03 0.00 94 1014.5
20260902134600 23 0 0.0 0.0 0.00 0.03 0.00 94 1014.4